Tracking 27188 objects as of 1-Apr-2023
HD Live streaming from Space Station
objects crossing your sky now

DELTA 1 DEB *

Track DELTA 1 DEB * now!
10-day predictions


NORAD ID: 8791
Int'l Code: 1966-087F
Perigee: 1,307.1 km
Apogee: 1,527.0 km
Inclination: 101.5 °
Period: 114.0 minutes
Semi major axis: 7788 km
RCS: 0.0151 m2 (small)
Launch date: October 2, 1966
Source: United States (US)
Launch site: AIR FORCE WESTERN TEST RANGE (AFWTR)

Note: This is SATELLITE DEBRIS
Your satellite tracking list
Your tracking list is empty




NASA's NSSDC Master Catalog

Two Line Element Set (TLE):
1 08791U 66087F   23077.85171980  .00000347  00000-0  20815-2 0  9992
2 08791 101.5207  48.7847 0141220  27.6943   2.2790 12.63165690594571
Source of the keplerian elements: AFSPC